Regional Weather Roundup
Issued by NWS Grand Forks, ND

Home | Current Version | Previous Version | Graphics & Text | Print | Product List | Glossary On
Versions: 1 2 3 4 5 6 7 8 9 10 11 12 13 14 15 16 17 18 19 20 21 22 23 24 25 26 27 28 29 30 31 32 33 34 35 36 37 38 39 40 41 42 43 44 45 46 47 48 49 50
000
ASUS43 KFGF 161431
RWRFGF
PRAIRIE TO PINES  WEATHER ROUNDUP
NATIONAL WEATHER SERVICE EASTERN NORTH DAKOTA/GRAND FORKS ND
900 AM CDT WED AUG 16 2017

 **SATELLITE DATA USED TO AUGMENT SKY COVER AT AUTOMATED STATIONS**
 *****  WEATHER ACROSS EASTERN NORTH DAKOTA  *****

CITY           SKY/WX    TMP DP  RH WIND       PRES   REMARKS
GRAND FORKS    LGT RAIN  64  64 100 E6        29.85S FOG
GRAND FRKS AFB DRIZZLE   62  62 100 E5        29.86S
DEVILS LAKE    CLOUDY    62  61  96 NE8       29.89R
FARGO          CLOUDY    65  64  97 SE7       29.84S
WAHPETON ARPT  CLOUDY    64  63  94 SE7       29.84S
$$

 ***** WEATHER ACROSS CENTRAL AND WESTERN NORTH DAKOTA  *****

CITY           SKY/WX    TMP DP  RH WIND       PRES   REMARKS
BISMARCK       CLOUDY    62  59  90 N10       29.92R
MINOT          FOG       59  58  96 NW7       29.93R VSB 3/4
JAMESTOWN      CLOUDY    65  63  93 CALM      29.83S FOG
MINOT AFB      FOG       57  57 100 N5        29.92R VSB 1/8
GARRISON         N/A     58  58 100 NW8       29.93R
WILLISTON      FOG       59  57  93 CALM      29.96R VSB 1/4
DICKINSON      FAIR      58  58 100 NW8       29.96R
HETTINGER      FAIR      58  56  93 NW6       29.98S
$$

 *****  OTHER AIRPORT OBSERVATIONS IN OUR AREA  *****

CITY           SKY/WX    TMP DP  RH WIND       PRES   REMARKS
WALHALLA       FAIR      61  63 100 CALM      29.89F
GRAFTON AIRPOR CLOUDY    63  63 100 E5        29.89S
VALLEY CITY AR DRZL/FOG  63  64 100 CALM      29.85S VSB 1
CANDO          CLOUDY    63  63 100 NE6       29.92S
CAVALIER APRT  CLOUDY    63  61  94 CALM      29.88S
GWINNER        CLOUDY    66  64  94 CALM      29.83R
SHEYENNE NWR     N/A     65  65 100 SE7       29.95S
ROLLA          CLOUDY    61  61 100 CALM      29.92S
 ***** THE ABOVE OBSERVATIONS ARE NON NWS ARE NOT QUALITY
       CONTROLLED AND MAY MIS-REPORT RAIN FOR SNOW...
$$

  *****  WEATHER ACROSS NORTHERN MINNESOTA  *****

CITY           SKY/WX    TMP DP  RH WIND       PRES   REMARKS
FLAG ISLAND    PTSUNNY   66  63  88 CALM      29.92S
WARROAD        FAIR      64  61  88 SE3       29.93F
ROSEAU         PTSUNNY   64  61  88 SE5       29.92F
HALLOCK        DRIZZLE   64  63  94 E5        29.88S
THF RVR FALLS  CLOUDY    63  61  94 E6        29.89S
BAUDETTE       LGT RAIN  62  58  86 SE8       29.93F
WASKISH        CLOUDY    63  57  82 E8        29.92F
CROOKSTON      CLOUDY    64  63  94 E6        29.87S
STEPHEN NDAWN    N/A     63  63 100 E5          N/A
GREENBUSH NDAW   N/A     64  63  94 E3          N/A
$$
  *****  WEATHER ACROSS CENTRAL AND WEST MINNESOTA  *****

CITY           SKY/WX    TMP DP  RH WIND       PRES   REMARKS
FOSSTON          N/A     63  61  94 SE7       29.88S
BEMIDJI        CLOUDY    63  58  86 E9        29.90F
PARK RAPIDS    CLOUDY    63  61  93 E9        29.89F FOG
ELBOW LAKE     CLOUDY    64  64 100 SE5       29.86S
WADENA         CLOUDY    63  63 100 SE10      29.88F
DETROIT LAKES  CLOUDY    63  61  94 SE10      29.88S FOG
MOORHEAD       CLOUDY    64  63  94 SE3       29.84F
FERGUS FALLS   CLOUDY    64  64 100 SE7       29.84F FOG
MORRIS MN      CLOUDY    66  64  94 SE7       29.84S FOG
STAPLES        CLOUDY    61  61 100 SE6       29.89F FOG
$$
  *****  WEATHER ELSEWHERE ACROSS MINNESOTA  *****

CITY           SKY/WX    TMP DP  RH WIND       PRES   REMARKS
DULUTH         FAIR      61  57  87 E12       29.99F
INTRNTL FALLS  CLOUDY    62  52  69 SE5       29.97F
ELY            FAIR      64  48  55 SE8       30.00F
CLOQUET        FAIR      63  57  82 E10       29.98S
WHEATON        CLOUDY    66  63  88 SE8       29.85S
BRAINERD       CLOUDY    63  61  93 SE9       29.92S
HIBBING        FAIR      61  54  77 SE10      29.97F
ALEXANDRIA     CLOUDY    65  64  97 SE8       29.89S FOG
SAINT CLOUD    CLOUDY    64  64 100 SE9       29.91S
MINNEAPOLIS    CLOUDY    67  63  87 SE12      29.92S
$$

  *****  WEATHER ACROSS SOUTH DAKOTA  *****

CITY           SKY/WX    TMP DP  RH WIND       PRES   REMARKS
SIOUX FALLS    LGT RAIN  67  66  97 E7        29.84S FOG
BROOKINGS      LGT RAIN  66  64  93 S7        29.86R
WATERTOWN      LGT RAIN  66  66 100 CALM      29.83F
HURON          LGT RAIN  66  66 100 CALM      29.84R FOG
SISSETON         N/A     66  66 100 SE8       29.82F
ABERDEEN       LGT RAIN  67  66  97 W6        29.83R FOG
MITCHELL       RAIN      66  66 100 E6        29.85S FOG
PIERRE         LGT RAIN  64  61  90 N10       29.87R
MOBRIDGE       CLOUDY    65  61  87 NW13      29.88R
RAPID CITY     FAIR      61  54  77 N14       29.99R
$$

  *****  SOME WEATHER IN NEARBY STATES *****

CITY           SKY/WX    TMP DP  RH WIND       PRES   REMARKS
GLASGOW MT     FAIR      61  49  64 E10       29.93S
GREAT FALLS MT FAIR      55  30  38 W7        30.00R
CHEYENNE WY    FAIR      54  45  71 NW7       30.14R
SCOTTSBLUFF NE FAIR      59  55  87 W7        30.02R
OMAHA NE       LGT RAIN  74  70  87 S10       29.77F
DES MOINES IA  CLOUDY    73  70  90 SE13      29.85R
DAVENPORT IA   FAIR      71  66  84 E12       29.96F
CHICAGO IL     FAIR      76  65  68 E9        30.00F
EAU CLAIRE WI  PTSUNNY   65  60  84 E7        29.96F
LA CROSSE WI   PTSUNNY   71  59  65 SE9       29.96S
$$

  *****  SOME NATIONAL WEATHER *****

CITY           SKY/WX    TMP DP  RH WIND       PRES   REMARKS
LA GUARDIA NY  FAIR      77  66  68 N10       29.96R
RALEIGH NC     FAIR      83  73  72 N6        30.04R
ATLANTA GA     FAIR      79  73  82 W8        30.11R
NEW ORLEANS LA PTSUNNY   82  80  94 SE6       30.06S HX  94
OKLAHOMA CITY  PTSUNNY   78  72  81 S14       29.87R
ALBUQUERQUE NM FAIR      66  41  40 SW3       30.16R
SALT LAKE CITY FAIR      65  44  46 SE7       30.06R
LOS ANGELES CA CLOUDY    68  58  70 SE9       29.96R
BOISE ID       FAIR      59  37  44 S5        29.99R
SEATTLE WA     FAIR      58  49  72 SE5       30.10R
$$

*** WEATHER ACROSS MANITOBA...SASKATCHEWAN AND ONTARIO ***
                ***ONTARIO***

CITY           SKY/WX    TMP DP  RH WIND       PRES   REMARKS
GERALDTON      PTSUNNY   57  52  82 SW3       30.10F
THUNDER BAY    MOSUNNY   57  55  94 CALM      30.07F
SIOUX LOOKOUT  CLOUDY    64  50  59 S9        30.00F
TORONTO        PTSUNNY   68  61  77 SE7       30.09S
BIG TROUT LK   SUNNY     64  55  72 S3        29.98S
PICKLE LAKE    MOSUNNY   64  57  77 S9        30.00F
DRYDEN         LGT RAIN  64  55  72 S5        29.99F
KENORA         CLOUDY    64  63  94 SE7       29.96F
$$
                *** MANITOBA***

CITY           SKY/WX    TMP DP  RH WIND       PRES   REMARKS
BRANDON        CLOUDY    61  59  94 W6        29.91R
DAUPHIN        SUNNY     64  61  88 W7        29.88S
ISLAND LAKE    LGT RAIN  64  61  88 SW6       29.89F
PILOT MOUND      N/A     63  59  88 E6          N/A
THE PAS        PTSUNNY   61  55  82 S7        29.79F
THOMPSON       LGT RAIN  61  59  94 VRB2      29.82R SMOKE
WINNIPEG       PTSUNNY   63  61  94 SE8       29.91F
LYNN LAKE      MOSUNNY   64  59  82 MISG      29.72F
CHURCHILL      MOSUNNY   63  55  77 SW6       29.81S
GILLAM         PTSUNNY   63  55  77 S5        29.86S SMOKE
$$
                ***SASKATCHEWAN***

CITY           SKY/WX    TMP DP  RH WIND       PRES   REMARKS
ESTEVAN        SUNNY     57  55  94 W3        29.95R
KINDERSLEY     PTSUNNY   52  48  87 S5        29.93R
LLOYDMINSTER   MOSUNNY   54  48  82 W5        29.88R
PRINCE ALBERT  MOSUNNY   57  50  77 W8        29.84
REGINA         SUNNY     54  48  82 VRB2      29.95R
YORKTON        SUNNY     59  52  77 S7        29.90S
N. BATTLEFORD  SUNNY     54  46  76 W5        29.91R
LA RONGE       PTSUNNY   59  55  88 SW10      29.70S
SASKATOON      MOSUNNY   55  48  76 W10       29.91R
SWIFT CURRENT  PTSUNNY   57  46  67 SW3       29.95S
$$
NOTE: THESE ARE AUTOMATED STATIONS WITH LIMITED QUALITY CONTROL
      "FAIR" INDICATES FEW OR NO CLOUDS BELOW 12,000 FEET WITH NO
      SIGNIFICANT WEATHER AND/OR OBSTRUCTIONS TO VISIBILITY.
      SKY/WX - SKY CONDITION AND SIGNIFICANT WEATHER.
      TMP - AIR TEMPERATURE.    DP   - DEWPOINT TEMPERATURE.
      RH  - RELATIVE HUMIDITY.  PRES - PRESSURE.
      HX  - HEAT INDEX.         WCI  - WIND CHILL INDEX.
$




USA.gov is the U.S. government's official web portal to all federal, state and local government web resources and services.